Flag for Germany Weather past 2 weeks in Schloss Holte-Stukenbrock, North Rhine-Westphalia, Germany

Now
46 °F

Drizzle. Overcast.


Feels Like: 41 °F
Forecast: 46 / 50 °F
Wind: 10 mph from Southwest

Location: Bad Lippspringe

Current Time: Dec 22, 2014 at 3:09:58 AM

Latest Report: Dec 22, 2014 at 2:00 AM


Visibility: 19 mi

Pressure: 30.09 "Hg

Humidity: 86%

Dew point: 42 °F

Location of Schloss Holte-StukenbrockLocation

Historic Weather in Schloss Holte-Stukenbrock — Graph

°F

Schloss Holte-Stukenbrock temperature yesterday

Maximum temperature yesterday: 45 °F (at 11:00 PM)
Minimum temperature yesterday: 38 °F (at 12:00 AM)
Average temperature yesterday: 41 °F

Past Weeks' High & Low Weather Summary

 TemperatureHumidityPressure
High53 °F (Dec 18, 8:00 PM)99% (Dec 17, 5:00 PM)30.39 "Hg (Dec 17, 5:00 PM)
Low34 °F (Dec 9, 11:00 PM)60% (Dec 7, 3:00 PM)29.54 "Hg (Dec 12, 9:00 AM)
Average42 °F87%29.98 "Hg
* Reported Dec 7 1:00 AM — Dec 22 1:00 AM, Schloss Holte-Stukenbrock, Weather by CustomWeather, © 2014

Note: Actual official high and low records may vary slightly from our data, if they occured in-between our weather recording intervals... More about our weather records

Advertising

Schloss Holte-Stukenbrock weather history for previous 24 hours

 ConditionsComfort  
Time TempWeatherWind HumidityBarometerVisibility
1:00 AM
Dec 22
46 °FOvercast.10 mph89%30.13 "Hg18 mi
12:00 AM45 °FDrizzle. Low clouds.10 mph93%30.15 "Hg7 mi
11:00 PM
Dec 21
45 °FDrizzle. Low clouds.9 mph94%30.15 "Hg7 mi
10:00 PM44 °FDrizzle. Low clouds.8 mph95%30.17 "Hg7 mi
9:00 PM44 °FDrizzle. Low clouds.7 mph95%30.19 "Hg7 mi
8:00 PM43 °FDrizzle. Low clouds.8 mph96%30.20 "Hg3 mi
7:00 PM43 °FDrizzle. Low clouds.7 mph95%30.21 "Hg2 mi
6:00 PM42 °FLight freezing rain. Low clouds.6 mph96%30.21 "Hg3 mi
5:00 PM42 °FDrizzle. Overcast.3 mph93%30.23 "Hg6 mi
4:00 PM42 °FDrizzle. Overcast.7 mph90%30.26 "Hg7 mi
3:00 PM44 °FDrizzle. Overcast.8 mph78%30.27 "Hg25 mi
2:00 PM44 °FOvercast.8 mph79%30.29 "Hg25 mi
1:00 PM43 °FOvercast.8 mph84%30.32 "Hg13 mi
12:00 PM43 °FOvercast.8 mph86%30.34 "Hg13 mi
11:00 AM42 °FOvercast.7 mph88%30.36 "Hg9 mi
10:00 AM41 °FLow clouds.5 mph90%30.36 "Hg8 mi
9:00 AM41 °FLow clouds.7 mph92%30.36 "Hg6 mi
8:00 AM40 °FLow clouds.3 mph93%30.35 "Hg7 mi
7:00 AM39 °FLow clouds.3 mph92%30.34 "Hg8 mi
6:00 AM39 °FOvercast.2 mph88%30.34 "Hg14 mi
5:00 AM39 °FOvercast.3 mph89%30.34 "Hg13 mi
4:00 AM40 °FOvercast.3 mph87%30.33 "Hg14 mi
3:00 AM39 °FOvercast.3 mph90%30.32 "Hg14 mi
Weather by CustomWeather, © 2014

See weather overviewHow to use our weather pages